Time,TemperatureF,DewpointF,PressureIn,WindDirection,WindDirectionDegrees,WindSpeedMPH,WindSpeedGustMPH,Humidity,HourlyPrecipIn,Conditions,Clouds,dailyrainin,SoftwareType,DateUTC
2013-08-07 00:02:00,80.0,75.0,29.84,SE,146,0.0,1.0,85,0.00,,,0.19,,2013-08-07 05:02:00,
2013-08-07 00:22:00,80.0,75.0,29.84,SE,146,0.0,1.0,85,0.00,,,0.19,,2013-08-07 05:22:00,
2013-08-07 00:32:00,80.0,75.0,29.84,SE,146,0.0,1.0,85,0.00,,,0.19,,2013-08-07 05:32:00,
2013-08-07 00:43:00,80.0,75.0,29.84,SE,146,0.0,1.0,85,0.00,,,0.19,,2013-08-07 05:43:00,
2013-08-07 00:52:00,80.0,75.0,29.84,SE,146,0.0,1.0,85,0.00,,,0.19,,2013-08-07 05:52:00,
2013-08-07 02:22:00,78.0,74.0,29.79,SSW,196,1.0,3.0,87,0.00,,,0.19,,2013-08-07 07:22:00,
2013-08-07 02:33:00,78.0,74.0,29.79,SSW,196,1.0,3.0,87,0.00,,,0.19,,2013-08-07 07:33:00,
2013-08-07 02:43:00,78.0,74.0,29.79,SSW,196,1.0,3.0,87,0.00,,,0.19,,2013-08-07 07:43:00,
2013-08-07 02:52:00,78.0,74.0,29.79,SSW,196,1.0,3.0,87,0.00,,,0.19,,2013-08-07 07:52:00,
2013-08-07 03:01:00,78.0,74.0,29.79,SSW,196,1.0,3.0,87,0.00,,,0.19,,2013-08-07 08:01:00,
2013-08-07 04:22:00,76.0,69.0,29.80,SW,222,10.0,20.0,80,0.00,,,0.01,,2013-08-07 09:22:00,
2013-08-07 04:32:00,76.0,69.0,29.80,SW,222,10.0,20.0,80,0.00,,,0.01,,2013-08-07 09:32:00,
2013-08-07 04:43:00,76.0,69.0,29.80,SW,222,10.0,20.0,80,0.00,,,0.01,,2013-08-07 09:43:00,
2013-08-07 04:54:00,76.0,69.0,29.80,SW,222,10.0,20.0,80,0.00,,,0.01,,2013-08-07 09:54:00,
2013-08-07 05:01:00,76.0,69.0,29.80,SW,222,10.0,20.0,80,0.00,,,0.01,,2013-08-07 10:01:00,
2013-08-07 06:02:00,72.0,70.0,29.85,NW,307,5.0,11.0,94,0.12,,,0.35,,2013-08-07 11:02:00,
2013-08-07 06:22:00,72.0,70.0,29.85,NW,307,5.0,11.0,94,0.12,,,0.35,,2013-08-07 11:22:00,
2013-08-07 06:32:00,72.0,70.0,29.85,NW,307,5.0,11.0,94,0.12,,,0.35,,2013-08-07 11:32:00,
2013-08-07 06:43:00,72.0,70.0,29.85,NW,307,5.0,11.0,94,0.12,,,0.35,,2013-08-07 11:43:00,
2013-08-07 06:53:00,72.0,70.0,29.85,NW,307,5.0,11.0,94,0.12,,,0.35,,2013-08-07 11:53:00,
2013-08-07 08:02:00,73.0,71.0,29.85,NE,40,1.0,5.0,94,0.03,,,0.51,,2013-08-07 13:02:00,
2013-08-07 08:22:00,73.0,71.0,29.85,NE,40,1.0,5.0,94,0.03,,,0.51,,2013-08-07 13:22:00,
2013-08-07 08:32:00,73.0,71.0,29.85,NE,40,1.0,5.0,94,0.03,,,0.51,,2013-08-07 13:32:00,
2013-08-07 08:44:00,73.0,71.0,29.85,NE,40,1.0,5.0,94,0.03,,,0.51,,2013-08-07 13:44:00,
2013-08-07 08:53:00,73.0,71.0,29.85,NE,40,1.0,5.0,94,0.03,,,0.51,,2013-08-07 13:53:00,
2013-08-07 10:02:00,75.0,72.0,29.90,NW,306,0.0,4.0,90,0.00,,,0.51,,2013-08-07 15:02:00,
2013-08-07 10:22:00,75.0,72.0,29.90,NW,306,0.0,4.0,90,0.00,,,0.51,,2013-08-07 15:22:00,
2013-08-07 10:33:00,75.0,72.0,29.90,NW,306,0.0,4.0,90,0.00,,,0.51,,2013-08-07 15:33:00,
2013-08-07 10:43:00,75.0,72.0,29.90,NW,306,0.0,4.0,90,0.00,,,0.51,,2013-08-07 15:43:00,
2013-08-07 10:53:00,75.0,72.0,29.90,NW,306,0.0,4.0,90,0.00,,,0.51,,2013-08-07 15:53:00,
2013-08-07 12:02:00,83.0,72.0,29.92,WSW,245,4.0,8.0,70,0.00,,,0.51,,2013-08-07 17:02:00,
2013-08-07 12:23:00,83.0,72.0,29.92,WSW,245,4.0,8.0,70,0.00,,,0.51,,2013-08-07 17:23:00,
2013-08-07 12:33:00,83.0,72.0,29.92,WSW,245,4.0,8.0,70,0.00,,,0.51,,2013-08-07 17:33:00,
2013-08-07 12:43:00,83.0,72.0,29.92,WSW,245,4.0,8.0,70,0.00,,,0.51,,2013-08-07 17:43:00,
2013-08-07 12:52:00,83.0,72.0,29.92,WSW,245,4.0,8.0,70,0.00,,,0.51,,2013-08-07 17:52:00,
2013-08-07 14:02:00,83.0,72.0,29.91,SSE,167,2.0,6.0,70,0.00,,,0.51,,2013-08-07 19:02:00,
2013-08-07 14:22:00,83.0,72.0,29.91,SSE,167,2.0,6.0,70,0.00,,,0.51,,2013-08-07 19:22:00,
2013-08-07 14:32:00,83.0,72.0,29.91,SSE,167,2.0,6.0,70,0.00,,,0.51,,2013-08-07 19:32:00,
2013-08-07 14:44:00,83.0,72.0,29.91,SSE,167,2.0,6.0,70,0.00,,,0.51,,2013-08-07 19:44:00,
2013-08-07 14:53:00,83.0,72.0,29.91,SSE,167,2.0,6.0,70,0.00,,,0.51,,2013-08-07 19:53:00,
2013-08-07 16:22:00,84.0,74.0,29.91,NW,309,2.0,7.0,72,0.00,,,0.51,,2013-08-07 21:22:00,
2013-08-07 16:32:00,84.0,74.0,29.91,NW,309,2.0,7.0,72,0.00,,,0.51,,2013-08-07 21:32:00,
2013-08-07 16:43:00,84.0,74.0,29.91,NW,309,2.0,7.0,72,0.00,,,0.51,,2013-08-07 21:43:00,
2013-08-07 16:52:00,84.0,74.0,29.91,NW,309,2.0,7.0,72,0.00,,,0.51,,2013-08-07 21:52:00,
2013-08-07 17:01:00,84.0,74.0,29.91,NW,309,2.0,7.0,72,0.00,,,0.51,,2013-08-07 22:01:00,